Hourly Data Report for October 10, 2016

All times are specified in Local Standard Time (LST). Add 1 hour to adjust for Daylight Saving Time where and when it is observed.

SAINT JOHN A
NEW BRUNSWICK

45°18'58.000" N
65°53'24.000" W
108.80 m
8104901
71609
YSJ

Download Data

Hourly Data (October 2016)
Hourly Data Report for October 10, 2016
Temp Definition
°C
Dew Point Temp Definition
°C
Rel Hum Definition
%
Wind Dir Definition
10's deg

Wind Spd Definition
km/h
Visibility Definition
km
Stn Press Definition
kPa
Hmdx Definition


Wind Chill Definition


Weather Definition


TIME
00:00 Legend Double Dagger 8.6 8.6 100 1 37 8.1 100.05     Rain,Fog
01:00 Legend Double Dagger 8.5 8.5 100 1 39 8.1 99.92     Rain,Fog
02:00 Legend Double Dagger 7.7 7.7 100 1 31 6.4 99.82     Rain,Fog
03:00 Legend Double Dagger 7.4 7.4 100 2 34 6.4 99.77     Rain,Fog
04:00 Legend Double Dagger 7.3 7.3 100 1 45 4.8 99.55     Rain,Fog
05:00 Legend Double Dagger 7.8 7.8 100 1 37 4.8 99.62     Rain,Fog
06:00 Legend Double Dagger 8.0 8.0 100 2 34 4.8 99.58     Rain,Fog
07:00 Legend Double Dagger 7.6 7.6 100 36 32 9.7 99.70     Rain,Fog
08:00 Legend Double Dagger 7.2 7.2 100 36 39 8.1 99.59     Rain,Fog
09:00 Legend Double Dagger 7.0 7.0 100 36 35 9.7 99.59     Rain,Fog
10:00 Legend Double Dagger 7.3 7.3 100 36 44 9.7 99.42     Rain,Fog
11:00 Legend Double Dagger 7.8 7.5 98 36 48 12.9 99.39     Rain
12:00 Legend Double Dagger 7.3 7.3 100 35 50 12.9 99.48     Rain
13:00 Legend Double Dagger 7.7 7.7 100 36 43 9.7 99.59     Rain,Fog
14:00 Legend Double Dagger 7.8 6.6 92 35 39 14.5 99.74     Rain
15:00 Legend Double Dagger 8.3 5.4 82 35 39 24.1 99.80     LegendNANA
16:00 Legend Double Dagger 8.9 4.5 74 35 37 24.1 99.92     LegendNANA
17:00 Legend Double Dagger 10.0 4.2 67 35 31 24.1 100.02     Mostly Cloudy
18:00 Legend Double Dagger 9.1 3.3 67 35 29 24.1 100.13     LegendNANA
19:00 Legend Double Dagger 8.9 3.1 67 35 34 24.1 100.24     LegendNANA
20:00 Legend Double Dagger 8.0 2.5 68 34 32 24.1 100.43     Mainly Clear
21:00 Legend Double Dagger 6.8 1.3 68 34 34 24.1 100.58     LegendNANA
22:00 Legend Double Dagger 5.5 1.1 73 32 16 24.1 100.73     LegendNANA
23:00 Legend Double Dagger 4.6 0.6 75 32 17 24.1 100.85     Clear

Notes on Data Quality.

Legend

  • E = Estimated
  • M = Missing
  • NA = Not Available
  • ‡ = Partner data that is not subject to review by the National Climate Archives
Date modified: